| time (UTC) | temp F | wind direction | speed knots | gust knots | rain 1hr in | rain 24hr in | rain mn in | humidity % | barometer mb |
| 20260904004534 | 84 | 119 | 2.6 | 8.7 | 0.00 | 0.00 | 0.00 | 77 | 1003.4 |
| 20260904003035 | 84 | 73 | 3.5 | 11.3 | 0.00 | 0.00 | 0.00 | 76 | 1003.5 |
| 20260904001534 | 85 | 136 | 6.1 | 12.2 | 0.00 | 0.00 | 0.00 | 76 | 1003.5 |
| 20260904000032 | 85 | 130 | 7.8 | 16.5 | 0.00 | 0.00 | 0.00 | 75 | 1003.4 |
| 20260903234531 | 85 | 110 | 7.8 | 15.6 | 0.00 | 0.00 | 0.00 | 74 | 1003.4 |
| 20260903233030 | 86 | 136 | 9.6 | 16.5 | 0.00 | 0.00 | 0.00 | 74 | 1003.2 |
| 20260903231534 | 86 | 120 | 8.7 | 13.9 | 0.00 | 0.00 | 0.00 | 73 | 1003.2 |
| 20260903230035 | 86 | 82 | 9.6 | 14.8 | 0.00 | 0.00 | 0.00 | 71 | 1003.1 |
| 20260903224548 | 87 | 84 | 5.2 | 14.8 | 0.00 | 0.00 | 0.00 | 69 | 1003.0 |
| 20260903223029 | 88 | 136 | 7.8 | 13.9 | 0.00 | 0.00 | 0.00 | 68 | 1003.2 |
| 20260903221532 | 89 | 113 | 6.1 | 13.0 | 0.00 | 0.00 | 0.00 | 66 | 1003.2 |
| 20260903220027 | 91 | 130 | 7.8 | 14.8 | 0.00 | 0.00 | 0.00 | 60 | 1003.0 |
| 20260903214537 | 90 | 143 | 10.4 | 16.5 | 0.00 | 0.00 | 0.00 | 61 | 1002.9 |
| 20260903213029 | 91 | 129 | 9.6 | 14.8 | 0.00 | 0.00 | 0.00 | 61 | 1003.0 |
| 20260903211523 | 90 | 171 | 7.0 | 15.6 | 0.00 | 0.00 | 0.00 | 63 | 1003.0 |
| 20260903210022 | 91 | 138 | 7.8 | 15.6 | 0.00 | 0.00 | 0.00 | 62 | 1003.3 |
| 20260903204520 | 91 | 160 | 7.8 | 15.6 | 0.00 | 0.00 | 0.00 | 63 | 1003.5 |
| 20260903203018 | 91 | 154 | 9.6 | 13.9 | 0.00 | 0.00 | 0.00 | 62 | 1003.6 |
| 20260903201515 | 90 | 148 | 7.0 | 13.9 | 0.00 | 0.00 | 0.00 | 65 | 1003.8 |
| 20260903200012 | 90 | 113 | 7.8 | 0.0 | 0.00 | 0.00 | 0.00 | 66 | 1004.0 |
| 20260903194512 | 89 | 143 | 7.0 | 13.0 | 0.00 | 0.00 | 0.00 | 68 | 1004.1 |
| 20260903193004 | 88 | 138 | 7.0 | 14.8 | 0.00 | 0.00 | 0.00 | 71 | 1004.3 |
| 20260903191600 | 85 | 121 | 7.8 | 12.2 | 0.00 | 0.00 | 0.00 | 75 | 1004.8 |
| 20260903190059 | 85 | 141 | 7.0 | 13.0 | 0.00 | 0.00 | 0.00 | 77 | 1005.1 |
| 20260903184557 | 84 | 137 | 7.8 | 13.9 | 0.00 | 0.00 | 0.00 | 78 | 1005.5 |
| 20260903183056 | 83 | 121 | 6.1 | 13.9 | 0.00 | 0.00 | 0.00 | 81 | 1005.6 |
| 20260903181554 | 83 | 131 | 8.7 | 14.8 | 0.00 | 0.00 | 0.00 | 83 | 1005.9 |
| 20260903180053 | 82 | 138 | 7.0 | 13.9 | 0.00 | 0.00 | 0.00 | 84 | 1006.0 |
| 20260903174555 | 82 | 156 | 8.7 | 14.8 | 0.00 | 0.00 | 0.00 | 84 | 1006.2 |
| 20260903173052 | 83 | 150 | 7.8 | 13.9 | 0.00 | 0.00 | 0.00 | 82 | 1006.5 |
| 20260903171550 | 83 | 143 | 7.8 | 14.8 | 0.00 | 0.00 | 0.00 | 81 | 1006.6 |
| 20260903170049 | 83 | 61 | 8.7 | 14.8 | 0.00 | 0.00 | 0.00 | 82 | 1006.7 |
| 20260903164549 | 83 | 143 | 5.2 | 12.2 | 0.00 | 0.00 | 0.00 | 82 | 1006.5 |
| 20260903163044 | 83 | 153 | 6.1 | 13.9 | 0.00 | 0.00 | 0.00 | 82 | 1006.4 |
| 20260903161543 | 83 | 115 | 7.0 | 13.0 | 0.00 | 0.00 | 0.00 | 82 | 1006.3 |
| 20260903160042 | 83 | 141 | 6.1 | 13.0 | 0.00 | 0.00 | 0.00 | 83 | 1006.1 |
| 20260903154559 | 82 | 124 | 8.7 | 12.2 | 0.00 | 0.00 | 0.00 | 84 | 1006.0 |
| 20260903153036 | 82 | 132 | 7.0 | 12.2 | 0.00 | 0.00 | 0.00 | 85 | 1005.9 |
| 20260903151534 | 81 | 124 | 3.5 | 10.4 | 0.00 | 0.00 | 0.00 | 86 | 1005.8 |
| 20260903150033 | 81 | 164 | 5.2 | 8.7 | 0.00 | 0.00 | 0.00 | 86 | 1005.8 |
| 20260903144530 | 80 | 105 | 4.3 | 8.7 | 0.00 | 0.00 | 0.00 | 86 | 1005.6 |
| 20260903143028 | 80 | 127 | 5.2 | 8.7 | 0.00 | 0.00 | 0.00 | 87 | 1005.6 |
| 20260903141525 | 80 | 114 | 5.2 | 8.7 | 0.00 | 0.00 | 0.00 | 87 | 1005.4 |
| 20260903140023 | 80 | 110 | 3.5 | 7.8 | 0.00 | 0.00 | 0.00 | 87 | 1005.6 |
| 20260903134523 | 79 | 115 | 2.6 | 6.1 | 0.00 | 0.00 | 0.00 | 87 | 1005.6 |
| 20260903133022 | 79 | 137 | 1.7 | 4.3 | 0.00 | 0.00 | 0.00 | 87 | 1005.4 |
| 20260903131519 | 79 | 141 | 1.7 | 5.2 | 0.00 | 0.00 | 0.00 | 87 | 1005.4 |
| 20260903130015 | 0 | 0.0 | 0.0 | 0.00 | 0.00 | 0.00 | 1005.3 | ||
| 20260903124518 | 0 | 0.0 | 0.0 | 0.00 | 0.00 | 0.00 | 1005.2 | ||
| 20260903123007 | 0 | 0.0 | 0.0 | 0.00 | 0.00 | 0.00 | 1005.0 | ||
| 20260903121503 | 0 | 0.0 | 0.0 | 0.00 | 0.00 | 0.00 | 1004.9 | ||
| 20260903120106 | 0 | 0.0 | 0.0 | 0.00 | 0.00 | 0.00 | 1004.8 | ||
| 20260903114557 | 0 | 0.0 | 0.0 | 0.00 | 0.00 | 0.00 | 1004.7 | ||
| 20260903113051 | 0 | 0.0 | 0.0 | 0.00 | 0.00 | 0.00 | 1004.6 | ||
| 20260903111545 | 0 | 0.0 | 0.0 | 0.00 | 0.00 | 0.00 | 1004.6 | ||
| 20260903110047 | 0 | 0.0 | 0.0 | 0.00 | 0.00 | 0.00 | 1004.6 | ||
| 20260903104542 | 0 | 0.0 | 0.0 | 0.00 | 0.00 | 0.00 | 1004.6 | ||
| 20260903103035 | 0 | 0.0 | 0.0 | 0.00 | 0.00 | 0.00 | 1004.6 | ||
| 20260903101536 | 0 | 0.0 | 0.0 | 0.00 | 0.00 | 0.00 | 1004.6 | ||
| 20260903100024 | 0 | 0.0 | 0.0 | 0.00 | 0.00 | 0.00 | 1004.5 | ||
| 20260903094519 | 0 | 0.0 | 0.0 | 0.00 | 0.00 | 0.00 | 1004.5 | ||
| 20260903093015 | 0 | 0.0 | 0.0 | 0.00 | 0.00 | 0.00 | 1004.5 | ||
| 20260903091513 | 0 | 0.0 | 0.0 | 0.00 | 0.00 | 0.00 | 1004.6 | ||
| 20260903090006 | 78 | 146 | 2.6 | 6.1 | 0.00 | 0.00 | 0.00 | 82 | 1004.7 |
| 20260903084505 | 79 | 164 | 2.6 | 6.1 | 0.00 | 0.00 | 0.00 | 82 | 1004.6 |
| 20260903083004 | 79 | 136 | 0.9 | 5.2 | 0.00 | 0.00 | 0.00 | 82 | 1004.7 |
| 20260903081513 | 79 | 170 | 2.6 | 5.2 | 0.00 | 0.00 | 0.00 | 82 | 1004.6 |
| 20260903080005 | 78 | 161 | 3.5 | 5.2 | 0.00 | 0.00 | 0.00 | 83 | 1004.6 |
| 20260903074504 | 78 | 156 | 2.6 | 5.2 | 0.00 | 0.00 | 0.00 | 83 | 1004.6 |
| 20260903073002 | 78 | 134 | 2.6 | 6.1 | 0.00 | 0.00 | 0.00 | 84 | 1004.7 |
| 20260903071609 | 79 | 146 | 1.7 | 4.3 | 0.00 | 0.00 | 0.00 | 83 | 1004.6 |
| 20260903070100 | 79 | 162 | 2.6 | 6.1 | 0.00 | 0.00 | 0.00 | 83 | 1004.7 |
| 20260903064556 | 79 | 148 | 2.6 | 6.1 | 0.00 | 0.00 | 0.00 | 82 | 1004.9 |
| 20260903063114 | 79 | 148 | 1.7 | 3.5 | 0.00 | 0.00 | 0.00 | 81 | 1005.0 |
| 20260903061552 | 79 | 127 | 1.7 | 3.5 | 0.00 | 0.00 | 0.00 | 80 | 1005.0 |
| 20260903060051 | 80 | 134 | 1.7 | 4.3 | 0.00 | 0.00 | 0.00 | 80 | 1005.1 |
| 20260903054550 | 80 | 128 | 1.7 | 3.5 | 0.00 | 0.00 | 0.00 | 79 | 1005.1 |
| 20260903053046 | 80 | 146 | 1.7 | 3.5 | 0.00 | 0.00 | 0.00 | 79 | 1005.1 |
| 20260903051547 | 80 | 150 | 1.7 | 4.3 | 0.00 | 0.00 | 0.00 | 78 | 1005.1 |
| 20260903050105 | 81 | 148 | 1.7 | 5.2 | 0.00 | 0.00 | 0.00 | 77 | 1005.1 |
| 20260903044542 | 81 | 131 | 0.9 | 4.3 | 0.00 | 0.00 | 0.00 | 76 | 1005.2 |
| 20260903043043 | 82 | 110 | 2.6 | 5.2 | 0.00 | 0.00 | 0.00 | 75 | 1005.2 |
| 20260903041541 | 82 | 110 | 3.5 | 8.7 | 0.00 | 0.00 | 0.00 | 74 | 1005.4 |
| 20260903040039 | 82 | 127 | 3.5 | 7.0 | 0.00 | 0.00 | 0.00 | 74 | 1005.6 |
| 20260903034539 | 83 | 100 | 3.5 | 8.7 | 0.00 | 0.00 | 0.00 | 73 | 1005.5 |
| 20260903033039 | 83 | 86 | 5.2 | 8.7 | 0.00 | 0.00 | 0.00 | 72 | 1005.5 |
| 20260903031537 | 83 | 103 | 6.1 | 9.6 | 0.00 | 0.00 | 0.00 | 71 | 1005.3 |
| 20260903030037 | 84 | 88 | 6.1 | 8.7 | 0.00 | 0.00 | 0.00 | 70 | 1005.1 |
| 20260903024536 | 85 | 122 | 3.5 | 7.0 | 0.00 | 0.00 | 0.00 | 68 | 1005.0 |
| 20260903023041 | 85 | 104 | 5.2 | 10.4 | 0.00 | 0.00 | 0.00 | 68 | 1004.8 |
| 20260903021535 | 86 | 102 | 4.3 | 8.7 | 0.00 | 0.00 | 0.00 | 66 | 1004.6 |
| 20260903020036 | 86 | 88 | 4.3 | 7.8 | 0.00 | 0.00 | 0.00 | 65 | 1004.4 |
| 20260903014536 | 87 | 85 | 4.3 | 9.6 | 0.00 | 0.00 | 0.00 | 62 | 1004.0 |
| 20260903013033 | 88 | 68 | 4.3 | 7.8 | 0.00 | 0.00 | 0.00 | 61 | 1004.0 |
| 20260903011548 | 89 | 117 | 1.7 | 8.7 | 0.00 | 0.00 | 0.00 | 59 | 1003.9 |
| 20260903010033 | 90 | 111 | 3.5 | 11.3 | 0.00 | 0.00 | 0.00 | 58 | 1003.6 |